STARLINK-36111 (66950 NORAD) Tracking and Keplerian Element Data

This shows tracking and keplerian element data for the satellite.

Feedback or suggestion? Click here.




ElementValue
Catalog66950
NameSTARLINK-36111
Epoch Orbit319
Epoch Day354.25003472
Epoch Year2025
RAAN12.6176
Inclination53.1557
Eccentricity0.0001201
Argument of Perigee85.0091
Mean Anonmoly199.8181
Mean Motion15.76999058
Decay Rate-0.0158651
L11 66950U 25286AB 25354.25003472 -.01586510 00000+0 -10966-1 0 9991
L22 66950 53.1557 12.6176 0001201 85.0091 199.8181 15.76999058 3193



Live tracking and technical data element details for STARLINK-36111 (NORAD 66950). STARLINK-36111 can be tracked NOW for your location showing map with azimuth and elevation plus other details from your city location.







IsCatalogInMostPopularTable: catalog: 66950, numindb: 8
Update: records affected: 1



GetName: 66950 STARLINK-36111

Hit Count: updated at: Sat, 07 Feb 2026 08:22:58 GMT